Location: Podia
(1.5569°N, 32.3469°E)
Time: 17:50:56
(UTC+00:00)

Cosmos 1072 Rocket - Pass Details

Date: 01 June 2020
Orbit: 948 x 1009 km, 82.9° (Epoch: 04 July)

Event Time Altitude Azimuth Distance (km) Brightness Sun altitude
Rises 17:23:02 0° 357° (N) 3,679 7.9 -21.1°
Reaches altitude 10° 17:25:33 10° 358° (N) 2,724 7.2 -21.7°
Maximum altitude 17:31:48 87° 87° (E) 974 4.4 -23.1°
Enters shadow 17:35:32 26° 176° (S) 1,807 5.6 -24.0°
